Time,TemperatureF,DewpointF,PressureIn,WindDirection,WindDirectionDegrees,WindSpeedMPH,WindSpeedGustMPH,Humidity,HourlyPrecipIn,Conditions,Clouds,dailyrainin,SoftwareType,DateUTC
2013-07-04 00:05:00,70.7,-34.4,29.69,West,270,1.7,-999.0,1,-99.99,,,0.00,Acu-Link.com,2013-07-04 05:05:00,
2013-07-04 00:20:00,70.9,-34.3,29.68,NNW,337,0.0,-999.0,1,-99.99,,,0.00,Acu-Link.com,2013-07-04 05:20:00,
2013-07-04 00:35:00,70.5,-34.5,29.67,ENE,67,0.0,-999.0,1,-99.99,,,0.00,Acu-Link.com,2013-07-04 05:35:00,
2013-07-04 00:51:00,70.2,-34.7,29.67,West,270,2.2,-999.0,1,-99.99,,,0.00,Acu-Link.com,2013-07-04 05:51:00,
2013-07-04 01:06:00,70.0,-34.8,29.67,WSW,247,0.0,-999.0,1,-99.99,,,0.00,Acu-Link.com,2013-07-04 06:06:00,
2013-07-04 01:21:00,70.0,-34.8,29.66,WSW,247,0.0,-999.0,1,-99.99,,,0.00,Acu-Link.com,2013-07-04 06:21:00,
2013-07-04 01:36:00,70.2,-34.7,29.65,WSW,247,0.0,-999.0,1,-99.99,,,0.00,Acu-Link.com,2013-07-04 06:36:00,
2013-07-04 01:51:00,71.4,-34.0,29.66,NE,45,0.0,-999.0,1,-99.99,,,0.00,Acu-Link.com,2013-07-04 06:51:00,
2013-07-04 02:07:00,70.7,-34.4,29.65,WNW,292,0.0,-999.0,1,-99.99,,,0.00,Acu-Link.com,2013-07-04 07:07:00,
2013-07-04 02:22:00,70.0,-34.8,29.65,WNW,292,0.0,-999.0,1,-99.99,,,0.00,Acu-Link.com,2013-07-04 07:22:00,
2013-07-04 02:37:00,70.3,-34.6,29.65,WNW,292,0.0,-999.0,1,-99.99,,,0.00,Acu-Link.com,2013-07-04 07:37:00,
2013-07-04 02:53:00,69.6,-35.1,29.64,West,270,0.0,-999.0,1,-99.99,,,0.00,Acu-Link.com,2013-07-04 07:53:00,
2013-07-04 03:09:00,70.3,-34.6,29.65,SSW,202,0.0,-999.0,1,-99.99,,,0.00,Acu-Link.com,2013-07-04 08:09:00,
2013-07-04 03:24:00,69.8,-34.9,29.64,SSW,202,0.0,-999.0,1,-99.99,,,0.00,Acu-Link.com,2013-07-04 08:24:00,
2013-07-04 03:39:00,69.1,-35.4,29.64,SW,225,0.0,-999.0,1,-99.99,,,0.00,Acu-Link.com,2013-07-04 08:39:00,
2013-07-04 03:54:00,68.7,-35.6,29.65,SW,225,0.0,-999.0,1,-99.99,,,0.00,Acu-Link.com,2013-07-04 08:54:00,
2013-07-04 04:10:00,68.9,-35.5,29.65,SW,225,0.0,-999.0,1,-99.99,,,0.00,Acu-Link.com,2013-07-04 09:10:00,
2013-07-04 04:25:00,68.5,-35.7,29.65,SW,225,0.0,-999.0,1,-99.99,,,0.00,Acu-Link.com,2013-07-04 09:25:00,
2013-07-04 04:40:00,68.4,-35.8,29.66,SSE,157,0.0,-999.0,1,-99.99,,,0.00,Acu-Link.com,2013-07-04 09:40:00,
2013-07-04 04:55:00,68.5,-15.3,29.66,WNW,292,0.0,-999.0,3,-99.99,,,0.00,Acu-Link.com,2013-07-04 09:55:00,
2013-07-04 05:11:00,68.9,68.3,29.66,ENE,67,0.0,-999.0,98,-99.99,,,0.00,Acu-Link.com,2013-07-04 10:11:00,
2013-07-04 05:26:00,68.9,68.3,29.65,NNW,337,0.0,-999.0,98,-99.99,,,0.00,Acu-Link.com,2013-07-04 10:26:00,
2013-07-04 05:41:00,68.7,68.1,29.66,NNE,22,1.7,-999.0,98,-99.99,,,0.00,Acu-Link.com,2013-07-04 10:41:00,
2013-07-04 05:57:00,68.7,68.1,29.66,WNW,292,0.0,-999.0,98,-99.99,,,0.00,Acu-Link.com,2013-07-04 10:57:00,
2013-07-04 06:12:00,68.7,68.1,29.66,NE,45,2.7,-999.0,98,-99.99,,,0.00,Acu-Link.com,2013-07-04 11:12:00,
2013-07-04 06:27:00,68.9,68.0,29.67,NW,315,1.1,-999.0,97,-99.99,,,0.00,Acu-Link.com,2013-07-04 11:27:00,
2013-07-04 06:42:00,69.6,69.0,29.67,NE,45,0.0,-999.0,98,-99.99,,,0.00,Acu-Link.com,2013-07-04 11:42:00,
2013-07-04 06:57:00,71.1,-34.2,29.67,NE,45,2.2,-999.0,1,-99.99,,,0.00,Acu-Link.com,2013-07-04 11:57:00,
2013-07-04 07:13:00,73.0,-33.0,29.67,ENE,67,2.2,-999.0,1,-99.99,,,0.00,Acu-Link.com,2013-07-04 12:13:00,
2013-07-04 07:28:00,74.8,-31.9,29.67,ENE,67,3.2,-999.0,1,-99.99,,,0.00,Acu-Link.com,2013-07-04 12:28:00,
2013-07-04 07:43:00,76.8,-30.7,29.67,NNE,22,4.2,-999.0,1,-99.99,,,0.00,Acu-Link.com,2013-07-04 12:43:00,
2013-07-04 07:59:00,79.0,-29.4,29.67,NE,45,3.2,-999.0,1,-99.99,,,0.00,Acu-Link.com,2013-07-04 12:59:00,
2013-07-04 08:14:00,79.3,-29.3,29.68,NE,45,4.7,-999.0,1,-99.99,,,0.00,Acu-Link.com,2013-07-04 13:14:00,
2013-07-04 08:29:00,81.3,-28.1,29.68,NNW,337,5.3,-999.0,1,-99.99,,,0.00,Acu-Link.com,2013-07-04 13:29:00,
2013-07-04 08:44:00,82.4,-27.4,29.67,NNE,22,3.7,-999.0,1,-99.99,,,0.00,Acu-Link.com,2013-07-04 13:44:00,
2013-07-04 09:00:00,84.7,-26.1,29.67,North,0,3.7,-999.0,1,-99.99,,,0.00,Acu-Link.com,2013-07-04 14:00:00,
2013-07-04 09:15:00,86.7,-24.9,29.67,WNW,292,4.7,-999.0,1,-99.99,,,0.00,Acu-Link.com,2013-07-04 14:15:00,
2013-07-04 09:30:00,86.0,-25.3,29.67,NW,315,2.7,-999.0,1,-99.99,,,0.00,Acu-Link.com,2013-07-04 14:30:00,
2013-07-04 09:45:00,86.9,-24.8,29.67,NNE,22,2.2,-999.0,1,-99.99,,,0.00,Acu-Link.com,2013-07-04 14:45:00,
2013-07-04 10:00:00,89.2,-23.4,29.67,West,270,2.2,-999.0,1,-99.99,,,0.00,Acu-Link.com,2013-07-04 15:00:00,
2013-07-04 10:15:00,88.7,-23.7,29.67,NNW,337,3.7,-999.0,1,-99.99,,,0.00,Acu-Link.com,2013-07-04 15:15:00,
2013-07-04 11:59:00,91.8,-21.9,29.70,North,0,7.3,-999.0,1,-99.99,,,0.00,Acu-Link.com,2013-07-04 16:59:00,
2013-07-04 12:14:00,92.7,-21.3,29.70,NW,315,3.2,-999.0,1,-99.99,,,0.00,Acu-Link.com,2013-07-04 17:14:00,
2013-07-04 12:30:00,92.5,-21.4,29.70,NNE,22,4.7,-999.0,1,-99.99,,,0.00,Acu-Link.com,2013-07-04 17:30:00,
2013-07-04 12:45:00,90.5,-22.6,29.69,NNE,22,7.8,-999.0,1,-99.99,,,0.00,Acu-Link.com,2013-07-04 17:45:00,
2013-07-04 13:00:00,91.6,-22.0,29.69,NE,45,8.3,-999.0,1,-99.99,,,0.00,Acu-Link.com,2013-07-04 18:00:00,
2013-07-04 13:16:00,93.0,-21.2,29.69,NE,45,7.8,-999.0,1,-99.99,,,0.00,Acu-Link.com,2013-07-04 18:16:00,
2013-07-04 13:31:00,93.0,-21.2,29.68,NE,45,4.7,-999.0,1,-99.99,,,0.00,Acu-Link.com,2013-07-04 18:31:00,
2013-07-04 13:46:00,92.5,-21.4,29.68,NNE,22,5.3,-999.0,1,-99.99,,,0.00,Acu-Link.com,2013-07-04 18:46:00,
2013-07-04 14:01:00,91.4,-22.1,29.68,NE,45,4.2,-999.0,1,-99.99,,,0.00,Acu-Link.com,2013-07-04 19:01:00,
2013-07-04 14:16:00,91.8,-21.9,29.68,NNE,22,7.8,-999.0,1,-99.99,,,0.00,Acu-Link.com,2013-07-04 19:16:00,
2013-07-04 14:31:00,91.2,-22.2,29.67,NNE,22,7.8,-999.0,1,-99.99,,,0.00,Acu-Link.com,2013-07-04 19:31:00,
2013-07-04 14:46:00,92.8,-21.3,29.66,NE,45,5.3,-999.0,1,-99.99,,,0.00,Acu-Link.com,2013-07-04 19:46:00,
2013-07-04 15:01:00,94.1,-20.5,29.65,NE,45,7.3,-999.0,1,-99.99,,,0.00,Acu-Link.com,2013-07-04 20:01:00,
2013-07-04 15:16:00,93.9,-20.6,29.64,NE,45,6.3,-999.0,1,-99.99,,,0.00,Acu-Link.com,2013-07-04 20:16:00,
2013-07-04 15:31:00,94.1,-20.5,29.63,NE,45,7.8,-999.0,1,-99.99,,,0.00,Acu-Link.com,2013-07-04 20:31:00,
2013-07-04 15:47:00,93.0,-21.2,29.63,NNW,337,6.8,-999.0,1,-99.99,,,0.00,Acu-Link.com,2013-07-04 20:47:00,
2013-07-04 16:02:00,91.6,-22.0,29.63,East,90,5.3,-999.0,1,-99.99,,,0.00,Acu-Link.com,2013-07-04 21:02:00,
2013-07-04 16:19:00,93.4,-20.9,29.63,NE,45,6.3,-999.0,1,-99.99,,,0.00,Acu-Link.com,2013-07-04 21:19:00,
2013-07-04 16:34:00,95.0,-20.0,29.63,North,0,3.7,-999.0,1,-99.99,,,0.00,Acu-Link.com,2013-07-04 21:34:00,
2013-07-04 16:50:00,91.2,-22.2,29.64,NNE,22,5.8,-999.0,1,-99.99,,,0.00,Acu-Link.com,2013-07-04 21:50:00,
2013-07-04 17:05:00,92.1,-21.7,29.64,NE,45,4.7,-999.0,1,-99.99,,,0.00,Acu-Link.com,2013-07-04 22:05:00,
2013-07-04 17:21:00,93.6,-20.8,29.64,NNE,22,3.7,-999.0,1,-99.99,,,0.00,Acu-Link.com,2013-07-04 22:21:00,
2013-07-04 17:36:00,91.2,-22.2,29.64,NNE,22,8.9,-999.0,1,-99.99,,,0.00,Acu-Link.com,2013-07-04 22:36:00,
2013-07-04 17:51:00,91.8,-21.9,29.64,NE,45,5.8,-999.0,1,-99.99,,,0.00,Acu-Link.com,2013-07-04 22:51:00,
2013-07-04 18:07:00,90.0,-22.9,29.63,NE,45,7.8,-999.0,1,-99.99,,,0.00,Acu-Link.com,2013-07-04 23:07:00,
2013-07-04 18:32:00,87.4,-24.5,29.64,ENE,67,5.3,-999.0,1,-99.99,,,0.00,Acu-Link.com,2013-07-04 23:32:00,
2013-07-04 18:58:00,88.0,-24.1,29.63,ENE,67,5.3,-999.0,1,-99.99,,,0.00,Acu-Link.com,2013-07-04 23:58:00,
2013-07-04 19:16:00,87.4,-24.5,29.63,North,0,3.7,-999.0,1,-99.99,,,0.00,Acu-Link.com,2013-07-05 00:16:00,
2013-07-04 19:42:00,86.2,-25.2,29.63,East,90,2.2,-999.0,1,-99.99,,,0.00,Acu-Link.com,2013-07-05 00:42:00,
2013-07-04 19:57:00,82.8,-27.2,29.63,North,0,0.0,-999.0,1,-99.99,,,0.00,Acu-Link.com,2013-07-05 00:57:00,
2013-07-04 20:13:00,81.1,-28.2,29.62,NNW,337,0.0,-999.0,1,-99.99,,,0.00,Acu-Link.com,2013-07-05 01:13:00,
2013-07-04 20:28:00,79.3,-29.3,29.63,West,270,0.0,-999.0,1,-99.99,,,0.00,Acu-Link.com,2013-07-05 01:28:00,
2013-07-04 20:43:00,77.9,-30.1,29.63,West,270,0.0,-999.0,1,-99.99,,,0.00,Acu-Link.com,2013-07-05 01:43:00,
2013-07-04 20:58:00,76.8,-30.7,29.62,SSE,157,0.0,-999.0,1,-99.99,,,0.00,Acu-Link.com,2013-07-05 01:58:00,
2013-07-04 21:14:00,75.9,-31.3,29.64,West,270,0.0,-999.0,1,-99.99,,,0.00,Acu-Link.com,2013-07-05 02:14:00,
2013-07-04 21:29:00,75.0,-31.8,29.65,West,270,0.0,-999.0,1,-99.99,,,0.00,Acu-Link.com,2013-07-05 02:29:00,
2013-07-04 21:44:00,74.5,-32.1,29.66,West,270,0.0,-999.0,1,-99.99,,,0.00,Acu-Link.com,2013-07-05 02:44:00,
2013-07-04 22:00:00,74.5,-32.1,29.66,West,270,0.0,-999.0,1,-99.99,,,0.00,Acu-Link.com,2013-07-05 03:00:00,
2013-07-04 22:15:00,73.8,-32.5,29.66,West,270,0.0,-999.0,1,-99.99,,,0.00,Acu-Link.com,2013-07-05 03:15:00,
2013-07-04 22:30:00,73.6,-32.7,29.67,WNW,292,0.0,-999.0,1,-99.99,,,0.00,Acu-Link.com,2013-07-05 03:30:00,
2013-07-04 22:46:00,73.6,-32.7,29.66,West,270,0.0,-999.0,1,-99.99,,,0.00,Acu-Link.com,2013-07-05 03:46:00,
2013-07-04 23:01:00,74.7,-32.0,29.68,ENE,67,0.0,-999.0,1,-99.99,,,0.00,Acu-Link.com,2013-07-05 04:01:00,
2013-07-04 23:16:00,74.7,-32.0,29.68,WSW,247,0.0,-999.0,1,-99.99,,,0.00,Acu-Link.com,2013-07-05 04:16:00,
2013-07-04 23:31:00,74.8,-31.9,29.67,East,90,0.0,-999.0,1,-99.99,,,0.00,Acu-Link.com,2013-07-05 04:31:00,
2013-07-04 23:46:00,74.5,-32.1,29.66,ESE,112,0.0,-999.0,1,-99.99,,,0.00,Acu-Link.com,2013-07-05 04:46:00,